Regional Weather Roundup
Issued by NWS

Home | Current Version | Previous Version | Text Only | Print | Product List | Glossary Off
Versions: 1 2 3 4 5 6 7 8 9 10 11 12 13 14 15 16 17 18 19 20 21 22 23 24 25 26 27 28 29 30 31 32 33 34 35 36 37 38 39 40 41 42 43 44 45 46 47 48 49 50

499
ASUS43 KIND 140409
RWRIN

WEATHER ROUNDUP FOR INDIANA
NATIONAL WEATHER SERVICE INDIANAPOLIS IN
1100 PM EST SAT FEB 13 2016

NOTE: "FAIR" INDICATES FEW OR NO CLOUDS BELOW 12,000 FEET WITH NO
SIGNIFICANT WEATHER AND/OR OBSTRUCTIONS TO VISIBILITY.

* - STATION DOES NOT REPORT WEATHER SUCH AS PRECIPITATION OR FOG.

+ - STATION NOT QUALITY CONTROLLED BY THE NATIONAL WEATHER SERVICE.
    USE DATA WITH CAUTION...ESPECIALLY DEWPOINT AND RELATIVE
    HUMIDITY OBSERVATIONS.

INZ001>003-010>013-019-020-140500-
NORTHWEST INDIANA

CITY           SKY/WX    TMP DP  RH WIND       PRES   REMARKS
GARY /AIRPORT/ PTCLDY    13  -2  50 S5        30.50S WCI   5
KNOX *+        PTCLDY     3   0  85 CALM      30.49F
LA PORTE +     CLOUDY     1  -2  88 CALM      30.48F
MICHIGAN CITY+ PTCLDY     1  -2  85 CALM      30.49F
MONTICELLO +   CLOUDY    11  -2  56 E5        30.49F WCI   3
RENSSELAER +   CLOUDY    14   1  57 E7        30.49F WCI   4
VALPARAISO     CLOUDY     8   0  69 CALM      30.48F

$$

LMZ046-743>745-140500-
SOUTHERN LAKE MICHIGAN

STATION/POSITION TIME  TEMP    WIND        PRES    WAVE
                       AIR SEA DIR/SP/G            HT
                 (UTC) (F)     (DEG/KT/KT) (MB)    (FT)
BURNS HARBOR     0300   12     180/  3/  6 1032.8S
MICHIGAN CITY    0300   10     130/  5/  5   N/A

$$

INZ004-005-014>016-021>024-140500-
NORTH CENTRAL INDIANA

CITY           SKY/WX    TMP DP  RH WIND       PRES   REMARKS
GOSHEN         CLOUDY     8   1  73 S3        30.47S
LOGANSPORT +   CLOUDY    10   0  61 E3        30.50F
PERU/GRISSOM   CLOUDY     8   0  69 E3        30.47S
ROCHESTER +    CLOUDY     5  -4  66 CALM      30.49F
SOUTH BEND     CLOUDY     7   1  76 SW3       30.48F
WARSAW +       CLOUDY     7   1  78 CALM      30.48S

$$

INZ006>009-017-018-025>027-140500-
NORTHEAST INDIANA

CITY           SKY/WX    TMP DP  RH WIND       PRES   REMARKS
ANGOLA *+      CLOUDY    10   5  79 CALM      30.43F
AUBURN +       PTCLDY     9   3  78 CALM      30.47S
FORT WAYNE     CLOUDY     7   0  73 W7        30.49S WCI  -5
HUNTINGTON +   CLOUDY     4  -3  73 CALM      30.49S

$$

INZ028-029-035-036-043>045-051>053-140500-
WEST CENTRAL INDIANA

CITY           SKY/WX    TMP DP  RH WIND       PRES   REMARKS
CRAWFORDSVL +  PTCLDY     9   1  71 CALM      30.46F
GREENCASTLE +  CLOUDY    14   0  52 CALM      30.46F
LAFAYETTE      CLOUDY    10   3  73 CALM      30.48F
TERRE HAUTE    CLOUDY    17   4  56 E6        30.48F WCI   9

$$

INZ030>032-037>040-046>048-054>057-064-065-140500-
CENTRAL INDIANA

CITY           SKY/WX    TMP DP  RH WIND       PRES   REMARKS
FISHERS *+     CLOUDY    10   5  79 CALM      30.47F
FRANKFORT +    CLOUDY    10  -1  59 E3        30.48F
GREENWOOD *+   PTCLDY    14   3  62 CALM      30.48F
INDIANAPOLIS   CLOUDY    14   0  53 NW3       30.46F
-EAGLE CREEK   CLOUDY    14   1  56 CALM      30.47F
KOKOMO *+      CLOUDY     7  -2  66 CALM      30.48F
MARION +       CLOUDY     6  -5  60 CALM      30.49F
MT COMFORT *+  CLOUDY    10   3  72 CALM      30.47F
SHELBYVILLE    CLOUDY    11   1  64 E5        30.47F WCI   3
ZIONSVILLE +   CLOUDY     8   3  79 CALM      30.47F

$$

INZ033-034-041-042-049-050-058-059-140500-
EAST CENTRAL INDIANA

CITY           SKY/WX    TMP DP  RH WIND       PRES   REMARKS
MUNCIE         CLOUDY     6  -2  69 CALM      30.48S

$$

INZ060-061-067>069-081>083-085>088-140500-
SOUTHWEST INDIANA

CITY           SKY/WX    TMP DP  RH WIND       PRES   REMARKS
EVANSVILLE     CLOUDY    23   2  40 NE7       30.48F WCI  15
HUNTINGBURG *+ PTCLDY    19   3  49 NE7       30.48F WCI  10
WASHINGTON +   PTCLDY    19   0  43 NE6       30.48F WCI  11

$$

INZ062-063-066-070>080-084-089>092-140500-
SOUTH CENTRAL AND SOUTHEAST INDIANA

CITY           SKY/WX    TMP DP  RH WIND       PRES   REMARKS
BEDFORD +      CLOUDY    18   5  57 E5        30.47F WCI  11
BLOOMINGTON    CLOUDY    16   1  51 NE3       30.45F
MADISON *+     CLOUDY    16   7  67 CALM      30.49F
NORTH VERNON + CLOUDY    12   7  79 CALM      30.48F
SEYMOUR +      CLOUDY    18   5  57 CALM      30.49F

$$





USA.gov is the U.S. government's official web portal to all federal, state and local government web resources and services.